Location: Campillo
(40.8621°N, 4.2488°W)
Time: 12:39:11
(UTC+00:00)

Resurs 1-3 - Visible Passes

Search period start: 20 September 2021 00:00
Search period end: 30 September 2021 00:00
Orbit: 630 x 632 km, 97.9° (Epoch: 19 September)

Date Brightness Start Highest point End Pass type
(mag) Time Alt. Az. Time Alt. Az. Time Alt. Az.
20 Sep 4.3 19:53:07 33° ENE 19:53:08 33° ENE 19:57:04 10° N visible
20 Sep 6.0 21:30:32 20° WNW 21:30:32 20° WNW 21:32:54 10° NW visible
21 Sep 3.8 20:14:10 52° NE 20:14:10 52° NE 20:17:58 10° N visible
21 Sep 6.6 21:51:33 12° WNW 21:51:33 12° WNW 21:52:23 10° WNW visible
22 Sep 4.1 20:35:12 56° NNW 20:35:12 56° NNW 20:38:42 10° NNW visible
23 Sep 5.3 19:18:50 15° ENE 19:19:04 15° ENE 19:21:36 10° NNE visible
23 Sep 4.9 20:56:14 38° NW 20:56:14 38° NW 20:59:15 10° NNW visible
24 Sep 4.8 19:39:53 24° ENE 19:39:53 24° ENE 19:43:02 10° NNE visible
24 Sep 5.8 21:17:16 24° WNW 21:17:16 24° WNW 21:19:34 10° NW visible
25 Sep 4.4 20:00:54 35° NE 20:00:54 35° NE 20:04:06 10° N visible
25 Sep 6.4 21:38:18 15° WNW 21:38:18 15° WNW 21:39:32 10° NW visible
26 Sep 4.4 20:21:57 41° N 20:21:57 41° N 20:24:57 10° N visible
27 Sep 5.6 19:05:35 11° ENE 19:05:35 11° ENE 19:06:48 10° NE visible
27 Sep 5.0 20:42:59 35° NNW 20:42:59 35° NNW 20:45:36 10° NNW visible
28 Sep 5.3 19:26:37 17° NE 19:26:37 17° NE 19:28:52 10° NNE visible
28 Sep 5.7 21:04:01 25° NW 21:04:01 25° NW 21:06:05 10° NNW visible
29 Sep 5.0 19:47:40 24° NE 19:47:40 24° NE 19:50:07 10° N visible
29 Sep 6.3 21:25:04 16° NW 21:25:04 16° NW 21:26:18 10° NW visible
